| time (UTC) | temp F | wind direction | speed knots | gust knots | rain 1hr in | rain 24hr in | rain mn in | humidity % | barometer mb |
| 20260504120300 | 60 | 102 | 1.7 | 1.7 | 0.00 | 0.00 | 0.00 | 88 | 1015.6 |
| 20260504110224 | 59 | 123 | 2.6 | 2.6 | 0.00 | 0.00 | 0.00 | 88 | 1015.2 |
| 20260504100148 | 59 | 123 | 1.7 | 1.7 | 0.00 | 0.00 | 0.00 | 86 | 1015.7 |
| 20260504090110 | 60 | 107 | 1.7 | 1.7 | 0.00 | 0.00 | 0.00 | 84 | 1016.0 |
| 20260504081541 | 60 | 108 | 2.6 | 2.6 | 0.00 | 0.00 | 0.00 | 85 | 1016.2 |
| 20260504081037 | 60 | 118 | 2.6 | 2.6 | 0.00 | 0.00 | 0.00 | 84 | 1016.3 |
| 20260504080533 | 60 | 127 | 1.7 | 1.7 | 0.00 | 0.00 | 0.00 | 83 | 1016.6 |
| 20260504050346 | 62 | 123 | 2.6 | 2.6 | 0.00 | 0.00 | 0.00 | 81 | 1018.6 |
| 20260504045843 | 62 | 129 | 2.6 | 2.6 | 0.00 | 0.00 | 0.00 | 82 | 1018.8 |
| 20260504045338 | 62 | 130 | 1.7 | 1.7 | 0.00 | 0.00 | 0.00 | 81 | 1018.8 |
| 20260504044835 | 62 | 142 | 2.6 | 1.7 | 0.00 | 0.00 | 0.00 | 81 | 1018.8 |
| 20260504044333 | 61 | 134 | 2.6 | 2.6 | 0.00 | 0.00 | 0.00 | 81 | 1019.1 |
| 20260504043830 | 61 | 136 | 2.6 | 2.6 | 0.00 | 0.00 | 0.00 | 82 | 1019.0 |
| 20260504043327 | 62 | 149 | 2.6 | 2.6 | 0.00 | 0.00 | 0.00 | 81 | 1019.0 |
| 20260504042824 | 62 | 155 | 2.6 | 1.7 | 0.00 | 0.00 | 0.00 | 80 | 1018.8 |
| 20260504042320 | 62 | 131 | 1.7 | 1.7 | 0.00 | 0.00 | 0.00 | 79 | 1018.9 |
| 20260504041817 | 62 | 123 | 1.7 | 2.6 | 0.00 | 0.00 | 0.00 | 79 | 1018.8 |
| 20260504041313 | 62 | 129 | 2.6 | 2.6 | 0.00 | 0.00 | 0.00 | 78 | 1018.9 |
| 20260504040809 | 63 | 124 | 2.6 | 1.7 | 0.00 | 0.00 | 0.00 | 78 | 1018.9 |
| 20260504040307 | 63 | 121 | 2.6 | 2.6 | 0.00 | 0.00 | 0.00 | 77 | 1019.1 |
| 20260504035803 | 63 | 125 | 2.6 | 2.6 | 0.00 | 0.00 | 0.00 | 77 | 1018.9 |
| 20260504035300 | 63 | 121 | 2.6 | 2.6 | 0.00 | 0.00 | 0.00 | 76 | 1018.7 |
| 20260504034757 | 63 | 121 | 2.6 | 2.6 | 0.00 | 0.00 | 0.00 | 76 | 1018.6 |
| 20260504034255 | 63 | 112 | 2.6 | 2.6 | 0.00 | 0.00 | 0.00 | 78 | 1018.9 |
| 20260504033752 | 63 | 136 | 1.7 | 1.7 | 0.00 | 0.00 | 0.00 | 78 | 1018.8 |
| 20260504033249 | 63 | 127 | 1.7 | 1.7 | 0.00 | 0.00 | 0.00 | 76 | 1018.8 |
| 20260504032746 | 64 | 130 | 2.6 | 2.6 | 0.00 | 0.00 | 0.00 | 75 | 1018.9 |
| 20260504032243 | 64 | 118 | 2.6 | 1.7 | 0.00 | 0.00 | 0.00 | 75 | 1018.9 |
| 20260504031740 | 64 | 143 | 2.6 | 2.6 | 0.00 | 0.00 | 0.00 | 76 | 1018.8 |
| 20260504031238 | 64 | 171 | 2.6 | 2.6 | 0.00 | 0.00 | 0.00 | 75 | 1019.0 |
| 20260504030733 | 64 | 163 | 2.6 | 1.7 | 0.00 | 0.00 | 0.00 | 75 | 1018.9 |
| 20260504030230 | 64 | 147 | 2.6 | 2.6 | 0.00 | 0.00 | 0.00 | 75 | 1018.7 |
| 20260504025727 | 64 | 141 | 2.6 | 2.6 | 0.00 | 0.00 | 0.00 | 75 | 1018.7 |
| 20260504025224 | 64 | 154 | 2.6 | 2.6 | 0.00 | 0.00 | 0.00 | 74 | 1018.5 |
| 20260504024721 | 64 | 154 | 2.6 | 2.6 | 0.00 | 0.00 | 0.00 | 74 | 1018.4 |
| 20260504024217 | 64 | 144 | 2.6 | 2.6 | 0.00 | 0.00 | 0.00 | 73 | 1018.4 |
| 20260504023714 | 64 | 148 | 3.5 | 4.3 | 0.00 | 0.00 | 0.00 | 73 | 1018.5 |
| 20260504023210 | 65 | 154 | 2.6 | 1.7 | 0.00 | 0.00 | 0.00 | 72 | 1018.5 |
| 20260504022706 | 65 | 146 | 3.5 | 4.3 | 0.00 | 0.00 | 0.00 | 72 | 1018.4 |
| 20260504022202 | 65 | 139 | 3.5 | 4.3 | 0.00 | 0.00 | 0.00 | 72 | 1018.3 |
| 20260504021700 | 65 | 139 | 4.3 | 4.3 | 0.00 | 0.00 | 0.00 | 71 | 1018.2 |
| 20260504021156 | 65 | 150 | 2.6 | 2.6 | 0.00 | 0.00 | 0.00 | 71 | 1018.3 |
| 20260504020654 | 65 | 152 | 2.6 | 2.6 | 0.00 | 0.00 | 0.00 | 71 | 1018.4 |
| 20260504020149 | 66 | 156 | 2.6 | 2.6 | 0.00 | 0.00 | 0.00 | 70 | 1018.1 |
| 20260504015647 | 66 | 156 | 2.6 | 2.6 | 0.00 | 0.00 | 0.00 | 69 | 1018.1 |
| 20260504015143 | 66 | 149 | 2.6 | 2.6 | 0.00 | 0.00 | 0.00 | 70 | 1018.3 |
| 20260504014639 | 66 | 162 | 2.6 | 2.6 | 0.00 | 0.00 | 0.00 | 69 | 1018.5 |
| 20260504014136 | 66 | 156 | 2.6 | 2.6 | 0.00 | 0.00 | 0.00 | 69 | 1018.5 |
| 20260504013634 | 67 | 160 | 2.6 | 2.6 | 0.00 | 0.00 | 0.00 | 68 | 1018.3 |
| 20260504013131 | 67 | 159 | 3.5 | 2.6 | 0.00 | 0.00 | 0.00 | 67 | 1018.3 |
| 20260504012628 | 67 | 161 | 3.5 | 4.3 | 0.00 | 0.00 | 0.00 | 66 | 1018.2 |
| 20260504012126 | 68 | 162 | 3.5 | 4.3 | 0.00 | 0.00 | 0.00 | 64 | 1018.4 |
| 20260504011622 | 68 | 170 | 3.5 | 4.3 | 0.00 | 0.00 | 0.00 | 62 | 1018.4 |
| 20260504011119 | 69 | 167 | 5.2 | 6.1 | 0.00 | 0.00 | 0.00 | 60 | 1018.4 |
| 20260504010614 | 69 | 172 | 5.2 | 6.1 | 0.00 | 0.00 | 0.00 | 59 | 1018.4 |
| 20260504010110 | 69 | 170 | 5.2 | 6.1 | 0.00 | 0.00 | 0.00 | 58 | 1018.4 |
| 20260504005608 | 70 | 171 | 5.2 | 6.1 | 0.00 | 0.00 | 0.00 | 57 | 1018.4 |
| 20260504005104 | 70 | 169 | 5.2 | 5.2 | 0.00 | 0.00 | 0.00 | 56 | 1018.4 |
| 20260504004603 | 71 | 172 | 7.0 | 7.0 | 0.00 | 0.00 | 0.00 | 55 | 1018.2 |
| 20260504004059 | 71 | 176 | 6.1 | 7.8 | 0.00 | 0.00 | 0.00 | 55 | 1018.3 |
| 20260504003556 | 71 | 180 | 5.2 | 7.0 | 0.00 | 0.00 | 0.00 | 54 | 1018.1 |
| 20260504003052 | 72 | 180 | 7.0 | 7.0 | 0.00 | 0.00 | 0.00 | 53 | 1018.4 |
| 20260504002549 | 72 | 175 | 9.6 | 12.2 | 0.00 | 0.00 | 0.00 | 51 | 1018.4 |
| 20260504002047 | 73 | 170 | 5.2 | 5.2 | 0.00 | 0.00 | 0.00 | 53 | 1018.4 |
| 20260504001544 | 73 | 178 | 6.1 | 7.8 | 0.00 | 0.00 | 0.00 | 51 | 1018.0 |
| 20260504001040 | 73 | 171 | 7.8 | 8.7 | 0.00 | 0.00 | 0.00 | 50 | 1018.1 |
| 20260504000538 | 73 | 152 | 10.4 | 12.2 | 0.00 | 0.00 | 0.00 | 50 | 1018.2 |
| 20260504000035 | 73 | 176 | 7.8 | 9.6 | 0.00 | 0.00 | 0.00 | 50 | 1018.2 |
| 20260503235533 | 74 | 199 | 10.4 | 12.2 | 0.00 | 0.00 | 0.00 | 49 | 1018.5 |
| 20260503235029 | 74 | 183 | 8.7 | 8.7 | 0.00 | 0.00 | 0.00 | 49 | 1018.4 |
| 20260503234527 | 74 | 155 | 8.7 | 8.7 | 0.00 | 0.00 | 0.00 | 50 | 1018.4 |
| 20260503234026 | 74 | 176 | 8.7 | 9.6 | 0.00 | 0.00 | 0.00 | 48 | 1018.3 |
| 20260503233521 | 75 | 162 | 6.1 | 7.0 | 0.00 | 0.00 | 0.00 | 50 | 1018.3 |
| 20260503233017 | 75 | 164 | 8.7 | 9.6 | 0.00 | 0.00 | 0.00 | 47 | 1018.3 |
| 20260503232514 | 75 | 163 | 11.3 | 13.0 | 0.00 | 0.00 | 0.00 | 48 | 1018.6 |
| 20260503232012 | 75 | 146 | 10.4 | 11.3 | 0.00 | 0.00 | 0.00 | 47 | 1018.5 |
| 20260503231510 | 75 | 167 | 10.4 | 12.2 | 0.00 | 0.00 | 0.00 | 48 | 1018.6 |
| 20260503231006 | 75 | 158 | 7.8 | 8.7 | 0.00 | 0.00 | 0.00 | 48 | 1018.6 |
| 20260503230503 | 75 | 158 | 7.8 | 8.7 | 0.00 | 0.00 | 0.00 | 47 | 1018.4 |
| 20260503230000 | 76 | 169 | 8.7 | 8.7 | 0.00 | 0.00 | 0.00 | 45 | 1018.6 |
| 20260503225457 | 76 | 187 | 6.1 | 7.0 | 0.00 | 0.00 | 0.00 | 48 | 1018.8 |
| 20260503224952 | 76 | 159 | 7.0 | 7.8 | 0.00 | 0.00 | 0.00 | 48 | 1018.5 |
| 20260503224450 | 76 | 142 | 12.2 | 13.9 | 0.00 | 0.00 | 0.00 | 46 | 1018.6 |
| 20260503223947 | 76 | 152 | 7.8 | 8.7 | 0.00 | 0.00 | 0.00 | 44 | 1018.7 |
| 20260503223445 | 76 | 182 | 7.8 | 8.7 | 0.00 | 0.00 | 0.00 | 48 | 1018.9 |
| 20260503222941 | 77 | 168 | 11.3 | 13.0 | 0.00 | 0.00 | 0.00 | 45 | 1018.8 |
| 20260503222439 | 76 | 140 | 7.8 | 7.8 | 0.00 | 0.00 | 0.00 | 48 | 1018.7 |
| 20260503221937 | 76 | 191 | 7.0 | 7.8 | 0.00 | 0.00 | 0.00 | 49 | 1018.9 |
| 20260503221435 | 77 | 172 | 12.2 | 13.9 | 0.00 | 0.00 | 0.00 | 48 | 1018.9 |
| 20260503220932 | 77 | 164 | 9.6 | 9.6 | 0.00 | 0.00 | 0.00 | 49 | 1018.8 |
| 20260503220428 | 77 | 162 | 8.7 | 8.7 | 0.00 | 0.00 | 0.00 | 47 | 1018.9 |
| 20260503215925 | 77 | 158 | 10.4 | 11.3 | 0.00 | 0.00 | 0.00 | 48 | 1018.9 |
| 20260503215422 | 77 | 189 | 8.7 | 8.7 | 0.00 | 0.00 | 0.00 | 46 | 1018.7 |
| 20260503214920 | 77 | 199 | 10.4 | 12.2 | 0.00 | 0.00 | 0.00 | 47 | 1019.1 |
| 20260503214417 | 77 | 178 | 12.2 | 13.9 | 0.00 | 0.00 | 0.00 | 47 | 1018.9 |
| 20260503213914 | 78 | 187 | 11.3 | 12.2 | 0.00 | 0.00 | 0.00 | 46 | 1019.3 |
| 20260503213412 | 78 | 185 | 10.4 | 11.3 | 0.00 | 0.00 | 0.00 | 48 | 1019.5 |
| 20260503212908 | 77 | 161 | 6.1 | 8.7 | 0.00 | 0.00 | 0.00 | 53 | 1019.4 |
| 20260503212406 | 77 | 173 | 8.7 | 9.6 | 0.00 | 0.00 | 0.00 | 49 | 1019.5 |
| 20260503211903 | 77 | 203 | 7.0 | 7.8 | 0.00 | 0.00 | 0.00 | 49 | 1019.4 |
| 20260503211400 | 78 | 203 | 10.4 | 12.2 | 0.00 | 0.00 | 0.00 | 49 | 1019.7 |
| 20260503210855 | 78 | 149 | 7.8 | 9.6 | 0.00 | 0.00 | 0.00 | 47 | 1019.6 |
| 20260503210353 | 78 | 192 | 12.2 | 15.6 | 0.00 | 0.00 | 0.00 | 46 | 1019.6 |
| 20260503205847 | 79 | 207 | 12.2 | 13.0 | 0.00 | 0.00 | 0.00 | 45 | 1019.9 |
| 20260503205344 | 79 | 179 | 9.6 | 9.6 | 0.00 | 0.00 | 0.00 | 45 | 1019.7 |
| 20260503204841 | 79 | 217 | 7.0 | 7.8 | 0.00 | 0.00 | 0.00 | 45 | 1019.8 |
| 20260503204338 | 80 | 163 | 9.6 | 11.3 | 0.00 | 0.00 | 0.00 | 44 | 1019.9 |
| 20260503203835 | 79 | 197 | 5.2 | 6.1 | 0.00 | 0.00 | 0.00 | 40 | 1020.0 |
| 20260503203333 | 78 | 130 | 4.3 | 5.2 | 0.00 | 0.00 | 0.00 | 39 | 1020.0 |
| 20260503202829 | 78 | 118 | 9.6 | 9.6 | 0.00 | 0.00 | 0.00 | 39 | 1020.3 |
| 20260503202328 | 79 | 174 | 6.1 | 6.1 | 0.00 | 0.00 | 0.00 | 39 | 1020.0 |
| 20260503201826 | 80 | 120 | 7.8 | 8.7 | 0.00 | 0.00 | 0.00 | 38 | 1020.1 |
| 20260503201322 | 80 | 185 | 6.1 | 7.0 | 0.00 | 0.00 | 0.00 | 38 | 1020.3 |
| 20260503200820 | 80 | 194 | 0.9 | 0.9 | 0.00 | 0.00 | 0.00 | 35 | 1020.2 |
| 20260503200316 | 79 | 87 | 1.7 | 1.7 | 0.00 | 0.00 | 0.00 | 40 | 1020.2 |
| 20260503195813 | 79 | 112 | 4.3 | 5.2 | 0.00 | 0.00 | 0.00 | 35 | 1020.6 |
| 20260503195309 | 80 | 132 | 7.0 | 7.8 | 0.00 | 0.00 | 0.00 | 34 | 1020.7 |
| 20260503194807 | 80 | 124 | 2.6 | 2.6 | 0.00 | 0.00 | 0.00 | 36 | 1020.8 |
| 20260503194303 | 80 | 154 | 5.2 | 6.1 | 0.00 | 0.00 | 0.00 | 36 | 1020.9 |
| 20260503193759 | 80 | 182 | 4.3 | 5.2 | 0.00 | 0.00 | 0.00 | 35 | 1020.5 |
| 20260503193255 | 79 | 157 | 1.7 | 1.7 | 0.00 | 0.00 | 0.00 | 36 | 1020.9 |
| 20260503192751 | 79 | 124 | 3.5 | 4.3 | 0.00 | 0.00 | 0.00 | 35 | 1021.0 |
| 20260503192246 | 80 | 123 | 9.6 | 11.3 | 0.00 | 0.00 | 0.00 | 35 | 1021.0 |
| 20260503191743 | 80 | 122 | 5.2 | 7.0 | 0.00 | 0.00 | 0.00 | 38 | 1020.9 |
| 20260503191240 | 79 | 275 | 0.9 | 0.9 | 0.00 | 0.00 | 0.00 | 32 | 1021.2 |
| 20260503190737 | 80 | 103 | 4.3 | 5.2 | 0.00 | 0.00 | 0.00 | 34 | 1021.3 |
| 20260503190234 | 79 | 101 | 2.6 | 2.6 | 0.00 | 0.00 | 0.00 | 33 | 1021.3 |
| 20260503185731 | 79 | 117 | 6.1 | 7.0 | 0.00 | 0.00 | 0.00 | 32 | 1021.4 |
| 20260503185226 | 78 | 238 | 0.9 | 0.9 | 0.00 | 0.00 | 0.00 | 33 | 1021.3 |
| 20260503184721 | 78 | 148 | 4.3 | 5.2 | 0.00 | 0.00 | 0.00 | 32 | 1021.6 |
| 20260503184218 | 78 | 160 | 9.6 | 9.6 | 0.00 | 0.00 | 0.00 | 33 | 1021.5 |
| 20260503183714 | 79 | 147 | 2.6 | 2.6 | 0.00 | 0.00 | 0.00 | 34 | 1021.5 |
| 20260503183212 | 79 | 109 | 4.3 | 5.2 | 0.00 | 0.00 | 0.00 | 35 | 1021.7 |
| 20260503182710 | 78 | 93 | 0.9 | 0.9 | 0.00 | 0.00 | 0.00 | 34 | 1021.9 |
| 20260503182208 | 78 | 139 | 2.6 | 1.7 | 0.00 | 0.00 | 0.00 | 36 | 1022.0 |
| 20260503181704 | 78 | 85 | 5.2 | 7.0 | 0.00 | 0.00 | 0.00 | 33 | 1022.1 |
| 20260503181201 | 78 | 122 | 2.6 | 2.6 | 0.00 | 0.00 | 0.00 | 31 | 1022.4 |
| 20260503180658 | 78 | 122 | 3.5 | 5.2 | 0.00 | 0.00 | 0.00 | 34 | 1022.1 |
| 20260503180156 | 78 | 110 | 6.1 | 6.1 | 0.00 | 0.00 | 0.00 | 33 | 1022.3 |
| 20260503175653 | 78 | 92 | 2.6 | 2.6 | 0.00 | 0.00 | 0.00 | 39 | 1022.3 |
| 20260503175150 | 78 | 83 | 4.3 | 5.2 | 0.00 | 0.00 | 0.00 | 36 | 1022.2 |
| 20260503174646 | 78 | 97 | 4.3 | 7.8 | 0.00 | 0.00 | 0.00 | 36 | 1022.6 |
| 20260503174144 | 78 | 108 | 4.3 | 5.2 | 0.00 | 0.00 | 0.00 | 33 | 1022.7 |
| 20260503173639 | 77 | 9 | 0.9 | 0.9 | 0.00 | 0.00 | 0.00 | 37 | 1022.8 |
| 20260503173136 | 77 | 102 | 3.5 | 4.3 | 0.00 | 0.00 | 0.00 | 38 | 1022.9 |
| 20260503172632 | 77 | 113 | 5.2 | 6.1 | 0.00 | 0.00 | 0.00 | 36 | 1022.9 |
| 20260503172130 | 77 | 129 | 8.7 | 9.6 | 0.00 | 0.00 | 0.00 | 33 | 1023.1 |
| 20260503171626 | 78 | 2 | 1.7 | 1.7 | 0.00 | 0.00 | 0.00 | 36 | 1023.1 |
| 20260503171123 | 77 | 95 | 2.6 | 5.2 | 0.00 | 0.00 | 0.00 | 41 | 1023.1 |
| 20260503170621 | 77 | 120 | 7.0 | 7.8 | 0.00 | 0.00 | 0.00 | 36 | 1023.1 |
| 20260503170117 | 78 | 152 | 6.1 | 7.0 | 0.00 | 0.00 | 0.00 | 34 | 1022.9 |
| 20260503151012 | 74 | 89 | 4.3 | 4.3 | 0.00 | 0.00 | 0.00 | 55 | 1023.2 |
| 20260503150509 | 74 | 119 | 1.7 | 1.7 | 0.00 | 0.00 | 0.00 | 55 | 1023.0 |
| 20260503131402 | 63 | 32 | 0.9 | 0.9 | 0.00 | 0.00 | 0.00 | 89 | 1022.7 |
| 20260503130859 | 62 | 339 | 0.9 | 0.9 | 0.00 | 0.00 | 0.00 | 91 | 1022.6 |
| 20260503130356 | 62 | 340 | 0.0 | 0.9 | 0.00 | 0.00 | 0.00 | 92 | 1022.5 |